Regional Weather Roundup
Issued by NWS

Home | Current Version | Previous Version | Graphics & Text | Print | Product List | Glossary On
Versions: 1 2 3 4 5 6 7 8 9 10 11 12 13 14 15 16 17 18 19 20 21 22 23 24 25 26 27 28 29 30 31 32 33 34 35 36 37 38 39 40 41 42 43 44 45 46 47 48 49 50
704
ASUS43 KOAX 280802
RWRNE

WEATHER ROUNDUP FOR NEBRASKA
NATIONAL WEATHER SERVICE OMAHA NE
300 AM CDT SUN AUG 28 2016

NOTES: SATELLITE DATA IS BEING USED TO AUGMENT CLOUD COVER ABOVE
       12000 FEET.
       "FAIR" INDICATES FEW OR NO CLOUDS BELOW 12,000 FEET WITH NO
       SIGNIFICANT WEATHER AND/OR OBSTRUCTIONS TO VISIBILITY.

  * THESE STATIONS DO NOT REPORT WEATHER SUCH AS RAIN...SNOW OR FOG.

NEZ001>004-019>022-054>056-280900-
NEBRASKA PANHANDLE

CITY           SKY/WX    TMP DP  RH WIND       PRES   REMARKS
SCOTTSBLUFF    CLEAR     63  52  67 E10       30.04F
ALLIANCE       CLEAR     62  59  90 S8        30.03F
CHADRON        CLEAR     70  54  56 S16G22    29.95S
SIDNEY         CLEAR     60  56  86 S8        30.09S
$$

NEZ057>060-069>072-079>082-280900-
SOUTHWEST NEBRASKA

CITY           SKY/WX    TMP DP  RH WIND       PRES   REMARKS
NORTH PLATTE   CLEAR     64  62  93 SE7       30.05S
IMPERIAL       CLEAR     62  60  93 SE7       30.07R
LEXINGTON      CLEAR     67  64  91 SE6       30.06S
MCCOOK         CLEAR     66  63  90 E6        30.05R
OGALLALA       CLEAR     67  63  85 S3        30.05R
$$

NEZ005>010-023>029-035>040-094-280900-
NORTH CENTRAL NEBRASKA

CITY           SKY/WX    TMP DP  RH WIND       PRES   REMARKS
VALENTINE      CLEAR     67  62  84 S9        30.00S
AINSWORTH      CLEAR     67  65  93 S10       30.02F
BROKEN BOW     CLEAR     66  65  96 S7        30.05S
O`NEILL        CLEAR     66  64  92 SE5       30.04F
ORD            CLEAR     66  62  87 SE6       30.03F
THEDFORD       CLEAR     69  65  88 S13       30.03F
$$

NEZ041-046>049-061>064-073>077-083>087-280900-
SOUTH CENTRAL NEBRASKA

CITY           SKY/WX    TMP DP  RH WIND       PRES   REMARKS
GRAND ISLAND   CLEAR     69  66  90 S8        30.05F
AURORA         CLEAR     65  65 100 SE5       30.05S
HASTINGS       CLEAR     69  66  90 SE8       30.06S
HEBRON         PTCLDY    67  66  95 CALM      30.05S
HOLDREGE       CLEAR     66  64  93 SE6       30.06R
KEARNEY *      CLEAR     66  64  94 SE5       30.05S
YORK           CLEAR     66  66 100 SE7       30.06S
$$

NEZ011>018-030>034-042>045-280900-
NORTHEAST NEBRASKA

CITY           SKY/WX    TMP DP  RH WIND       PRES   REMARKS
NORFOLK        CLEAR     66  62  87 S8        30.04F
ALBION         CLEAR     66  63  91 CALM      30.05F
BLAIR          CLOUDY    69  67  93 SE5       30.07S
FREMONT        CLEAR     67  66  97 SE3       30.06S
TEKAMAH        FOG       60  59  96 CALM      30.05F VSB 1/2
WAYNE          CLEAR     64  64  97 S3        30.05F
$$

NEZ050>053-065>068-078-088>093-280900-
SOUTHEAST NEBRASKA

CITY           SKY/WX    TMP DP  RH WIND       PRES   REMARKS
LINCOLN        CLEAR     64  62  93 CALM      30.06S
OMAHA EPPLEY   CLOUDY    70  65  84 CALM      30.06F
BEATRICE       PTCLDY    67  66  94 E5        30.06S
FALLS CITY     CLOUDY    70  69  97 E5        30.06R
NEBRASKA CITY  MOCLDY    68  68 100 CALM      30.07S
PLATTSMOUTH    PTCLDY    68  68  99 SE5       30.07S
$$

NEZ044-045-051>053-067-280900-
OMAHA AREA

CITY           SKY/WX    TMP DP  RH WIND       PRES   REMARKS
OMAHA EPPLEY   CLOUDY    70  65  84 CALM      30.06F
BLAIR          CLOUDY    69  67  93 SE5       30.07S
FREMONT        CLEAR     67  66  97 SE3       30.06S
MILLARD        MOCLDY    68  67  95 CALM      30.06S
OFFUTT AFB     MOCLDY    65  65 100 E5        30.06S
PLATTSMOUTH    PTCLDY    68  68  99 SE5       30.07S
WAHOO          FOG       64  62  96 CALM      30.06F VSB 3/4
$$




USA.gov is the U.S. government's official web portal to all federal, state and local government web resources and services.